When you browse on this site, cookies collect data to enhance your experience and personalize the content and advertising you see.
Visit our Privacy Policy to learn more. By continuing to use the site, you agree to this use of cookies and data.
  • In United Kingdom
  • List of Countries
  • For 7 days
  • Water Temperature
  • Satellite Maps
  • Weather Map
  • Weather Widgets
  • user-avatar
    Login

    Hourly Weather Ganta

    Today, 25 April, Thursday

    Time Temperature Precipitation Wind Pressure Humidity
    00:00 +22°C° 0 mm 0 mps 724 mmHg 98%
    01:00 +22°C° 0 mm 0 mps 723 mmHg 98%
    02:00 +22°C° 0 mm 0 mps 723 mmHg 98%
    03:00 +22°C° 0 mm 0 mps 723 mmHg 99%
    04:00 +22°C° 0 mm 0 mps 723 mmHg 99%
    05:00 +22°C° 0 mm 0 mps 723 mmHg 99%
    06:00 +23°C° 0 mm 0 mps 724 mmHg 95%
    07:00 +26°C° 0 mm 1 mps 724 mmHg 91%
    08:00 +27°C° 0 mm 1 mps 725 mmHg 87%
    09:00 +28°C° 0 mm 1 mps 724 mmHg 79%
    10:00 +30°C° 0 mm 1 mps 724 mmHg 72%
    11:00 +31°C° 0 mm 1 mps 724 mmHg 65%
    12:00 +30°C° 0 mm 0 mps 724 mmHg 61%
    13:00 +32°C° 0 mm 0 mps 723 mmHg 56%
    14:00 +33°C° 0 mm 0 mps 722 mmHg 52%
    15:00 +32°C° 0.2 mm 0 mps 722 mmHg 57%
    16:00 +30°C° 0.2 mm 0 mps 722 mmHg 63%
    17:00 +29°C° 0.2 mm 0 mps 722 mmHg 68%
    18:00 +27°C° 0.3 mm 0 mps 722 mmHg 74%
    19:00 +26°C° 0.3 mm 0 mps 723 mmHg 80%
    20:00 +24°C° 0.3 mm 0 mps 723 mmHg 85%
    21:00 +24°C° 0 mm 0 mps 724 mmHg 89%
    22:00 +25°C° 0 mm 1 mps 724 mmHg 93%
    23:00 +25°C° 0 mm 1 mps 724 mmHg 96%

    Tomorrow, 26 April, Friday

    Time Temperature Precipitation Wind Pressure Humidity
    00:00 +23°C° 0 mm 0 mps 723 mmHg 97%
    01:00 +22°C° 0 mm 0 mps 723 mmHg 97%
    02:00 +22°C° 0 mm 0 mps 723 mmHg 98%
    03:00 +22°C° 0.1 mm 0 mps 723 mmHg 98%
    04:00 +22°C° 0.1 mm 0 mps 723 mmHg 98%
    05:00 +22°C° 0.1 mm 0 mps 723 mmHg 98%
    06:00 +23°C° 0.1 mm 0 mps 723 mmHg 92%
    07:00 +25°C° 0.1 mm 0 mps 724 mmHg 86%
    08:00 +28°C° 0.1 mm 1 mps 724 mmHg 81%
    09:00 +29°C° 0.5 mm 0 mps 724 mmHg 70%
    10:00 +32°C° 0.5 mm 0 mps 724 mmHg 59%
    11:00 +35°C° 0.5 mm 0 mps 724 mmHg 48%
    12:00 +34°C° 0.9 mm 0 mps 724 mmHg 51%
    13:00 +33°C° 0.9 mm 0 mps 723 mmHg 53%
    14:00 +32°C° 0.9 mm 0 mps 722 mmHg 56%
    15:00 +31°C° 0 mm 0 mps 722 mmHg 58%
    16:00 +31°C° 0 mm 0 mps 721 mmHg 60%
    17:00 +30°C° 0 mm 0 mps 721 mmHg 63%
    18:00 +28°C° 1.1 mm 0 mps 722 mmHg 73%
    19:00 +28°C° 1.1 mm 1 mps 722 mmHg 84%
    20:00 +26°C° 1.1 mm 1 mps 722 mmHg 94%
    21:00 +25°C° 0 mm 1 mps 723 mmHg 95%
    22:00 +25°C° 0 mm 1 mps 723 mmHg 96%
    23:00 +23°C° 0 mm 0 mps 723 mmHg 97%

    Day after tomorrow, 27 April, Saturday

    Time Temperature Precipitation Wind Pressure Humidity
    00:00 +23°C° 0 mm 0 mps 722 mmHg 97%
    01:00 +23°C° 0 mm 0 mps 722 mmHg 98%
    02:00 +22°C° 0 mm 0 mps 721 mmHg 98%
    03:00 +25°C° 0 mm 1 mps 722 mmHg 98%
    04:00 +25°C° 0 mm 1 mps 722 mmHg 98%
    05:00 +25°C° 0 mm 1 mps 722 mmHg 97%
    06:00 +26°C° 0 mm 1 mps 723 mmHg 94%
    07:00 +27°C° 0 mm 1 mps 723 mmHg 91%
    08:00 +27°C° 0 mm 1 mps 724 mmHg 88%
    09:00 +29°C° 0 mm 1 mps 724 mmHg 80%
    10:00 +30°C° 0 mm 2 mps 724 mmHg 72%
    11:00 +32°C° 0 mm 2 mps 723 mmHg 65%
    12:00 +33°C° 0.1 mm 1 mps 723 mmHg 60%
    13:00 +34°C° 0.1 mm 1 mps 722 mmHg 56%
    14:00 +35°C° 0.1 mm 1 mps 721 mmHg 52%
    15:00 +33°C° 1.6 mm 1 mps 721 mmHg 62%
    16:00 +31°C° 1.6 mm 1 mps 721 mmHg 73%
    17:00 +29°C° 1.6 mm 1 mps 721 mmHg 83%
    18:00 +28°C° 1.3 mm 1 mps 722 mmHg 87%
    19:00 +27°C° 1.3 mm 1 mps 722 mmHg 91%
    20:00 +26°C° 1.3 mm 1 mps 723 mmHg 95%
    21:00 +26°C° 0.6 mm 1 mps 723 mmHg 96%
    22:00 +26°C° 0.6 mm 1 mps 723 mmHg 97%
    23:00 +25°C° 0.6 mm 1 mps 723 mmHg 98%

    28 April, Sunday

    Time Temperature Precipitation Wind Pressure Humidity
    00:00 +26°C° 0.1 mm 1 mps 723 mmHg 98%
    01:00 +26°C° 0.1 mm 1 mps 722 mmHg 98%
    02:00 +26°C° 0.1 mm 1 mps 721 mmHg 97%
    03:00 +25°C° 0.1 mm 1 mps 722 mmHg 97%
    04:00 +25°C° 0.1 mm 1 mps 722 mmHg 97%
    05:00 +25°C° 0.1 mm 1 mps 722 mmHg 97%
    06:00 +26°C° 0.1 mm 1 mps 723 mmHg 96%
    07:00 +26°C° 0.1 mm 1 mps 723 mmHg 95%
    08:00 +26°C° 0.1 mm 1 mps 724 mmHg 93%
    09:00 +28°C° 0.1 mm 1 mps 724 mmHg 87%
    10:00 +29°C° 0.1 mm 1 mps 723 mmHg 81%
    11:00 +30°C° 0.1 mm 1 mps 723 mmHg 74%
    12:00 +31°C° 0 mm 1 mps 723 mmHg 68%
    13:00 +33°C° 0 mm 1 mps 722 mmHg 61%
    14:00 +34°C° 0 mm 1 mps 721 mmHg 55%
    15:00 +33°C° 0.7 mm 1 mps 721 mmHg 62%
    16:00 +32°C° 0.7 mm 1 mps 721 mmHg 68%
    17:00 +29°C° 0.7 mm 0 mps 721 mmHg 75%
    18:00 +29°C° 0.1 mm 1 mps 722 mmHg 81%
    19:00 +28°C° 0.1 mm 1 mps 722 mmHg 86%
    20:00 +26°C° 0.1 mm 1 mps 723 mmHg 92%
    21:00 +26°C° 0 mm 1 mps 723 mmHg 94%
    22:00 +26°C° 0 mm 1 mps 723 mmHg 96%
    23:00 +25°C° 0 mm 1 mps 723 mmHg 98%

    29 April, Monday

    Time Temperature Precipitation Wind Pressure Humidity
    00:00 +25°C° 0.1 mm 1 mps 722 mmHg 97%
    01:00 +25°C° 0.1 mm 1 mps 722 mmHg 96%
    02:00 +26°C° 0.1 mm 1 mps 721 mmHg 96%
    03:00 +25°C° 0.1 mm 1 mps 722 mmHg 96%
    04:00 +25°C° 0.1 mm 1 mps 722 mmHg 96%
    05:00 +25°C° 0.1 mm 1 mps 722 mmHg 96%
    06:00 +26°C° 0.1 mm 1 mps 723 mmHg 95%
    07:00 +26°C° 0.1 mm 1 mps 723 mmHg 94%
    08:00 +26°C° 0.1 mm 1 mps 724 mmHg 93%
    09:00 +29°C° 0.1 mm 1 mps 724 mmHg 82%
    10:00 +31°C° 0.1 mm 1 mps 724 mmHg 70%
    11:00 +34°C° 0.1 mm 2 mps 723 mmHg 59%
    12:00 +34°C° 0 mm 2 mps 723 mmHg 58%
    13:00 +33°C° 0 mm 1 mps 722 mmHg 57%
    14:00 +34°C° 0 mm 1 mps 721 mmHg 56%
    15:00 +33°C° 0 mm 1 mps 721 mmHg 59%
    16:00 +32°C° 0 mm 1 mps 721 mmHg 63%
    17:00 +31°C° 0 mm 1 mps 721 mmHg 67%
    18:00 +30°C° 0 mm 1 mps 722 mmHg 73%
    19:00 +28°C° 0 mm 1 mps 723 mmHg 79%
    20:00 +27°C° 0 mm 1 mps 723 mmHg 85%
    21:00 +26°C° 0 mm 1 mps 723 mmHg 89%
    22:00 +26°C° 0 mm 1 mps 723 mmHg 93%
    23:00 +25°C° 0 mm 1 mps 723 mmHg 97%

    30 April, Tuesday

    Time Temperature Precipitation Wind Pressure Humidity
    00:00 +25°C° 0 mm 1 mps 723 mmHg 97%
    01:00 +25°C° 0 mm 1 mps 722 mmHg 96%
    02:00 +25°C° 0 mm 1 mps 722 mmHg 96%
    03:00 +25°C° 0.1 mm 1 mps 722 mmHg 96%
    04:00 +25°C° 0.1 mm 1 mps 723 mmHg 96%
    05:00 +23°C° 0.1 mm 0 mps 723 mmHg 96%
    06:00 +26°C° 0.1 mm 1 mps 723 mmHg 91%
    07:00 +27°C° 0.1 mm 1 mps 724 mmHg 87%
    08:00 +28°C° 0.1 mm 1 mps 724 mmHg 82%
    09:00 +30°C° 0 mm 1 mps 724 mmHg 72%
    10:00 +32°C° 0 mm 1 mps 724 mmHg 62%
    11:00 +35°C° 0 mm 1 mps 724 mmHg 52%
    12:00 +35°C° 0.2 mm 1 mps 723 mmHg 51%
    13:00 +36°C° 0.2 mm 1 mps 723 mmHg 49%
    14:00 +36°C° 0.2 mm 1 mps 722 mmHg 48%
    15:00 +34°C° 0.8 mm 1 mps 722 mmHg 58%
    16:00 +32°C° 0.8 mm 1 mps 722 mmHg 68%
    17:00 +30°C° 0.8 mm 2 mps 722 mmHg 77%
    18:00 +28°C° 0.3 mm 1 mps 722 mmHg 82%
    19:00 +27°C° 0.3 mm 1 mps 723 mmHg 87%
    20:00 +26°C° 0.3 mm 1 mps 723 mmHg 92%
    21:00 +26°C° 0.2 mm 1 mps 723 mmHg 94%
    22:00 +25°C° 0.2 mm 1 mps 723 mmHg 96%
    23:00 +25°C° 0.2 mm 1 mps 723 mmHg 98%
    Show more